Location: Liscomb Game Sanctuary
(45.1633°N, 62.5575°W)
Time: 05:13:36
(UTC-03:00)

Amateur Radio Satellites - All Passes

Search period start: 27 March 2015 04:43
Search period end: 28 March 2015 04:43
Location: Liscomb Game Sanctuary, 45.1633°N, 62.5575°W

Satellite Date Start Highest point End Downlink Frequencies (MHz)
Time Altitude Azimuth
AUBIESAT-1 27 Mar 05:04:24 05:08:19 59° 67° (ENE) 05:12:37 437.475
O/OREOS (USA 219) 27 Mar 05:10:36 05:15:07 60° 110° (ESE) 05:19:41 437.305
SO-50 27 Mar 05:11:06 05:16:00 60° 239° (WSW) 05:20:50 436.795
GONETS M04 27 Mar 05:14:15 05:18:50 15° 51° (NE) 05:23:55
HORYU 2 27 Mar 05:20:13 05:24:37 55° 288° (WNW) 05:29:01 437.375
RS-15 27 Mar 05:20:14 05:31:43 80° 238° (WSW) 05:43:41 29.354- 29.394
ITAMSAT 1 27 Mar 05:21:45 05:25:02 17° 301° (WNW) 05:28:06 435.822/435.867
AIST 1 27 Mar 05:23:34 05:27:59 71° 280° (W) 05:32:24
M-CUBED/EXP-1 PRIME 27 Mar 05:26:24 05:30:21 72° 254° (WSW) 05:34:41 437.505
AO-7 27 Mar 05:53:45 06:02:05 85° 291° (WNW) 06:10:24 29.400- 29.500
STRAND 1 27 Mar 05:54:22 05:57:52 19° 61° (ENE) 06:01:31 437.568
Gurwin Techsat 1B 27 Mar 05:55:45 05:57:32 11° 305° (NW) 05:59:02 435.225
JAS-2 27 Mar 06:02:14 06:10:06 72° 288° (WNW) 06:17:25 435.910
ISS 27 Mar 06:03:07 06:06:22 80° 28° (NNE) 06:09:36 145.825
MOZHAYETS 4 27 Mar 06:11:42 06:15:13 21° 269° (W) 06:18:38
CUBESAT XI-V 27 Mar 06:12:36 06:16:58 40° 70° (ENE) 06:21:24 437.345
PRISM 27 Mar 06:35:19 06:39:26 57° 73° (ENE) 06:43:37 437.425
AUBIESAT-1 27 Mar 06:41:32 06:43:43 14° 268° (W) 06:45:49 437.475
VERMONT LUNAR 27 Mar 06:46:44 06:48:14 13° 153° (SSE) 06:49:48 437.305
O/OREOS (USA 219) 27 Mar 06:51:41 06:55:00 19° 310° (NW) 06:58:13 437.305
GONETS M04 27 Mar 07:09:08 07:17:55 66° 77° (ENE) 07:26:43
Cubesat XI-IV 27 Mar 07:20:14 07:25:29 55° 100° (E) 07:30:43 437.490
CUTE-I 27 Mar 07:20:53 07:26:07 55° 100° (E) 07:31:20 437.470
STRAND 1 27 Mar 07:31:30 07:36:38 65° 258° (WSW) 07:41:46 437.568
RS-15 27 Mar 07:34:26 07:42:42 22° 258° (WSW) 07:50:31 29.354- 29.394
CUSAT 1 27 Mar 07:34:42 07:37:20 17° 72° (ENE) 07:40:35 437.405
ISS 27 Mar 07:40:22 07:42:26 16° 225° (SW) 07:44:24 145.825
AO-7 27 Mar 07:47:44 07:53:55 23° 310° (NW) 07:59:50 29.400- 29.500
JAS-2 27 Mar 07:48:48 07:53:53 18° 308° (NW) 07:58:33 435.910
CUBESAT XI-V 27 Mar 07:50:43 07:54:36 24° 268° (W) 07:58:22 437.345
DANDE 27 Mar 08:07:11 08:10:14 25° 75° (ENE) 08:14:07 436.750
PRISM 27 Mar 08:12:58 08:15:21 14° 271° (W) 08:17:34 437.425
VERMONT LUNAR 27 Mar 08:22:23 08:25:23 30° 169° (S) 08:28:24 437.305
HO-68 27 Mar 08:40:36 08:45:19 19° 87° (E) 08:50:21 435.675
PHONESAT 2.4 27 Mar 08:41:04 08:44:03 26° 164° (SSE) 08:47:04 2401.200-2431.200
CUTE 1.7 + AOD 2 27 Mar 08:43:05 08:43:36 10° 86° (E) 08:44:25 437.475
GOMX 1 27 Mar 08:53:31 08:56:07 16° 90° (E) 08:58:55 467.674
DOVE 4 27 Mar 08:55:54 08:57:18 12° 88° (E) 08:58:58 437.250
Cubesat XI-IV 27 Mar 09:01:05 09:05:16 23° 298° (WNW) 09:09:19 437.490
CUTE-I 27 Mar 09:01:43 09:05:53 23° 298° (WNW) 09:09:54 437.470
GONETS M04 27 Mar 09:06:51 09:14:12 30° 277° (W) 09:21:19
SEEDS 27 Mar 09:14:08 09:17:13 19° 91° (E) 09:20:22 437.485
AAUSAT CUBESAT 2 27 Mar 09:16:13 09:18:29 14° 88° (E) 09:20:56 437.432
CUSAT 1 27 Mar 09:16:24 09:20:08 42° 262° (W) 09:25:00 437.405
BRITE-PL 27 Mar 09:30:27 09:34:34 59° 100° (E) 09:38:48 437.365/2234.400
COMPASS 1 27 Mar 09:40:07 09:43:51 29° 95° (E) 09:47:36 437.405
QB50P1 27 Mar 09:49:26 09:49:28 10° 60° (ENE) 09:49:43 145.935-145.965
DANDE 27 Mar 09:50:21 09:53:29 24° 263° (W) 09:57:17 436.750
DUCHIFAT 1 27 Mar 09:52:03 09:52:50 11° 60° (ENE) 09:53:50 145.980
VERMONT LUNAR 27 Mar 09:59:38 10:02:45 35° 186° (S) 10:05:53 437.305
QB50P2 27 Mar 10:01:07 10:03:12 14° 62° (ENE) 10:05:29 145.880/145.840
CANX-2 27 Mar 10:01:30 10:05:50 80° 102° (ESE) 10:10:10 2200.000
UNISAT 6 27 Mar 10:11:53 10:15:37 31° 68° (ENE) 10:19:27 437.425
CUTE 1.7 + AOD 2 27 Mar 10:15:52 10:20:12 80° 286° (WNW) 10:24:31 437.475
PHONESAT 2.4 27 Mar 10:18:41 10:22:01 39° 180° (S) 10:25:21 2401.200-2431.200
TIGRISAT 27 Mar 10:23:08 10:27:05 38° 70° (ENE) 10:31:06 435.000
HO-68 27 Mar 10:26:48 10:34:03 86° 288° (WNW) 10:41:16 435.675
UKube-1 27 Mar 10:27:16 10:29:42 15° 90° (E) 10:32:19 .
POPSAT HIP 1 27 Mar 10:28:59 10:32:25 25° 67° (ENE) 10:35:55 437.405
CINEMA 3 27 Mar 10:29:44 10:34:02 60° 101° (E) 10:38:31 145.822/145.860
GOMX 1 27 Mar 10:30:32 10:34:36 48° 287° (WNW) 10:38:48 467.674
DOVE 4 27 Mar 10:31:23 10:35:38 70° 285° (WNW) 10:40:02 437.250
DX 1 27 Mar 10:33:35 10:36:35 19° 91° (E) 10:39:42 434.975-435.025
NANOSAT C BR1 27 Mar 10:40:20 10:44:04 32° 69° (ENE) 10:47:52 145.865
BUGSAT 1 27 Mar 10:42:03 10:45:25 25° 68° (ENE) 10:48:52 437.445
POLYITAN 1 27 Mar 10:42:08 10:45:56 34° 70° (ENE) 10:49:47 437.675
DELFI C3 27 Mar 10:45:43 10:49:43 48° 99° (E) 10:53:42 145.870
SEEDS 27 Mar 10:49:11 10:53:15 42° 289° (WNW) 10:57:17 437.485
HUMSAT D 27 Mar 10:49:54 10:52:54 19° 91° (E) 10:56:02 437.325/437.525
AAUSAT CUBESAT 2 27 Mar 10:50:23 10:54:33 55° 287° (WNW) 10:58:41 437.432
ANTELSAT 27 Mar 10:51:41 10:55:57 80° 76° (ENE) 11:00:18 437.575/2403.000
BEESAT 3 27 Mar 10:53:42 10:56:58 24° 115° (ESE) 11:00:19 437.485
Oscar 11 27 Mar 10:56:24 11:00:48 81° 102° (ESE) 11:05:10 145.826/435.025
CUBEBUG 2 27 Mar 10:58:49 11:03:10 68° 101° (ESE) 11:07:39 437.445
UWE-3 27 Mar 10:59:13 11:03:31 57° 100° (E) 11:07:55 435.000/436.395/437.385
FUNcube-1 27 Mar 11:01:47 11:06:00 48° 99° (E) 11:10:18 145.935
VELOX 1 27 Mar 11:03:22 11:06:12 17° 90° (E) 11:09:10 145.980
AISAT 27 Mar 11:06:40 11:09:47 19° 91° (E) 11:13:00 437.250
BRITE-PL 27 Mar 11:10:29 11:12:46 14° 297° (WNW) 11:14:55 437.365/2234.400
AIST 2 27 Mar 11:12:40 11:14:09 12° 110° (ESE) 11:15:51 435.215
ZACube-1 27 Mar 11:13:35 11:17:56 66° 101° (E) 11:22:21 437.345
COMPASS 1 27 Mar 11:15:51 11:19:30 27° 292° (WNW) 11:23:05 437.405
QB50P1 27 Mar 11:20:30 11:24:44 87° 76° (ENE) 11:28:58 145.935-145.965
DUCHIFAT 1 27 Mar 11:23:51 11:28:05 88° 255° (WSW) 11:32:19 145.980
ESTCUBE 1 27 Mar 11:27:49 11:30:40 17° 89° (E) 11:33:40 437.505/2401.250
QB50P2 27 Mar 11:34:28 11:38:40 65° 259° (WSW) 11:42:53 145.880/145.840
VERMONT LUNAR 27 Mar 11:37:36 11:40:01 18° 202° (SSW) 11:42:24 437.305
CANX-2 27 Mar 11:39:28 11:41:14 12° 299° (WNW) 11:42:49 2200.000
UNISAT 6 27 Mar 11:48:51 11:52:28 26° 266° (W) 11:56:04 437.425
BEESAT 2 27 Mar 11:50:29 11:54:36 75° 123° (ESE) 11:58:47 435.950
PHONESAT 2.4 27 Mar 11:56:59 11:59:58 25° 197° (SSW) 12:02:57 2401.200-2431.200
TIGRISAT 27 Mar 12:00:48 12:04:03 20° 268° (W) 12:07:14 435.000
UKube-1 27 Mar 12:02:01 12:06:16 55° 288° (WNW) 12:10:29 .
50 SAT 27 Mar 12:04:19 12:08:22 81° 102° (ESE) 12:12:25 437.505
POPSAT HIP 1 27 Mar 12:04:24 12:08:13 32° 264° (W) 12:12:00 437.405
CINEMA 3 27 Mar 12:08:15 12:10:54 16° 296° (WNW) 12:13:27 145.822/145.860
DX 1 27 Mar 12:08:57 12:13:07 45° 289° (WNW) 12:17:14 434.975-435.025
HO-68 27 Mar 12:15:51 12:20:55 20° 307° (NW) 12:25:44 435.675
NANOSAT C BR1 27 Mar 12:16:30 12:20:00 24° 266° (W) 12:23:26 145.865
BUGSAT 1 27 Mar 12:17:05 12:20:50 31° 264° (W) 12:24:32 437.445
POLYITAN 1 27 Mar 12:18:33 12:21:59 23° 267° (W) 12:25:18 437.675
DELFI C3 27 Mar 12:21:51 12:24:35 17° 295° (WNW) 12:27:11 145.870
Oscar 19 27 Mar 12:23:46 12:27:03 18° 61° (ENE) 12:30:30 437.125/150
HUMSAT D 27 Mar 12:24:54 12:28:54 42° 289° (WNW) 12:32:56 437.325/437.525
BEESAT 3 27 Mar 12:30:56 12:34:50 40° 312° (NW) 12:38:47 437.485
Oscar 11 27 Mar 12:34:36 12:36:26 12° 299° (WNW) 12:38:04 145.826/435.025
UWE-3 27 Mar 12:36:54 12:39:43 17° 296° (WNW) 12:42:26 435.000/436.395/437.385
CUBEBUG 2 27 Mar 12:37:03 12:39:27 14° 297° (WNW) 12:41:44 437.445
VELOX 1 27 Mar 12:38:50 12:43:07 50° 288° (WNW) 12:47:22 145.980
FUNcube-1 27 Mar 12:38:58 12:42:04 19° 295° (WNW) 12:45:05 145.935
AISAT 27 Mar 12:42:27 12:46:40 45° 290° (WNW) 12:50:51 437.250
CUBEBUG 1 27 Mar 12:46:07 12:50:30 86° 281° (W) 12:54:49 437.445
AIST 2 27 Mar 12:47:55 12:52:12 81° 306° (NW) 12:56:32 435.215
ZACube-1 27 Mar 12:51:26 12:53:52 15° 297° (WNW) 12:56:12 437.345
ESTCUBE 1 27 Mar 13:03:31 13:07:57 53° 288° (WNW) 13:12:20 437.505/2401.250
TISAT 1 27 Mar 13:03:49 13:07:37 33° 96° (E) 13:11:25 437.305
SPROUT 27 Mar 13:04:59 13:09:02 40° 98° (E) 13:13:05 437.525
AO-7 27 Mar 13:18:38 13:20:01 11° 36° (NE) 13:21:48 29.400- 29.500
ITAMSAT 1 27 Mar 13:23:14 13:27:03 22° 62° (ENE) 13:30:59 435.822/435.867
BEESAT 2 27 Mar 13:30:22 13:33:17 18° 324° (NW) 13:36:08 435.950
ITUPSAT 1 27 Mar 13:31:50 13:33:13 11° 86° (E) 13:34:53 437.325
O/OREOS (USA 219) 27 Mar 13:39:58 13:43:27 21° 51° (NE) 13:46:59 437.305
50 SAT 27 Mar 13:41:44 13:42:45 11° 299° (WNW) 13:43:34 437.505
Gurwin Techsat 1B 27 Mar 13:57:11 14:01:51 33° 66° (ENE) 14:06:36 435.225
YUBILEINY 27 Mar 13:59:19 14:07:32 48° 89° (E) 14:15:54 435.215
Oscar 19 27 Mar 14:00:50 14:05:55 69° 257° (WSW) 14:11:04 437.125/150
SWISSCUBE 27 Mar 14:18:31 14:22:56 36° 96° (E) 14:27:21 437.505
BEESAT 27 Mar 14:21:55 14:26:20 36° 97° (E) 14:30:45 436.000
CUBEBUG 1 27 Mar 14:25:22 14:26:13 10° 301° (WNW) 14:26:51 437.445
AIST 2 27 Mar 14:28:53 14:31:31 15° 327° (NNW) 14:34:05 435.215
JAS-2 27 Mar 14:34:02 14:38:06 17° 51° (NE) 14:42:39 435.910
TISAT 1 27 Mar 14:39:52 14:43:19 24° 293° (WNW) 14:46:39 437.305
SPROUT 27 Mar 14:41:39 14:44:54 21° 294° (WNW) 14:48:04 437.525
HORYU 2 27 Mar 14:45:15 14:48:28 20° 64° (ENE) 14:51:48 437.375
ITAMSAT 1 27 Mar 15:01:02 15:06:11 58° 259° (W) 15:11:21 435.822/435.867
AO-7 27 Mar 15:03:13 15:10:38 39° 58° (ENE) 15:18:09 29.400- 29.500
ITUPSAT 1 27 Mar 15:07:02 15:11:53 86° 288° (WNW) 15:16:41 437.325
KKS-1 27 Mar 15:08:44 15:12:04 21° 92° (E) 15:15:30 437.445
PCSat 27 Mar 15:18:45 15:23:32 34° 112° (ESE) 15:28:25 145.827
O/OREOS (USA 219) 27 Mar 15:18:47 15:23:12 49° 251° (WSW) 15:27:33 437.305
AIST 1 27 Mar 15:28:59 15:32:56 34° 74° (ENE) 15:36:51
Gurwin Techsat 1B 27 Mar 15:36:53 15:41:48 36° 264° (W) 15:46:41 435.225
STARS 27 Mar 15:45:49 15:49:46 32° 96° (E) 15:53:44 437.465
YUBILEINY 27 Mar 15:56:13 16:04:32 43° 290° (WNW) 16:12:48 435.215
SWISSCUBE 27 Mar 15:56:35 16:00:43 28° 294° (WNW) 16:04:43 437.505
BEESAT 27 Mar 15:59:59 16:04:05 28° 294° (WNW) 16:08:07 436.000
JAS-2 27 Mar 16:15:00 16:21:47 68° 71° (ENE) 16:29:23 435.910
HORYU 2 27 Mar 16:20:36 16:24:51 45° 261° (W) 16:29:09 437.375
KKS-1 27 Mar 16:44:44 16:48:55 41° 290° (WNW) 16:53:05 437.445
ITUPSAT 1 27 Mar 16:47:07 16:49:07 12° 302° (WNW) 16:50:53 437.325
AO-7 27 Mar 16:55:06 17:03:15 55° 258° (WSW) 17:11:22 29.400- 29.500
PCSat 27 Mar 17:01:45 17:06:53 42° 311° (NW) 17:12:03 145.827
Cubesat XI-IV 27 Mar 17:06:50 17:10:11 18° 59° (ENE) 17:13:44 437.490
AIST 1 27 Mar 17:07:01 17:10:26 22° 271° (W) 17:13:43
CUTE-I 27 Mar 17:07:20 17:10:41 18° 59° (ENE) 17:14:13 437.470
STARS 27 Mar 17:22:25 17:26:09 27° 293° (WNW) 17:29:49 437.465
RS-15 27 Mar 17:45:56 17:46:25 10° 95° (E) 17:48:03 29.354- 29.394
JAS-2 27 Mar 18:01:55 18:07:36 26° 273° (W) 18:13:34 435.910
MOZHAYETS 4 27 Mar 18:03:16 18:07:58 83° 103° (ESE) 18:12:37
AUBIESAT-1 27 Mar 18:18:12 18:22:42 38° 102° (ESE) 18:27:11 437.475
GONETS M04 27 Mar 18:21:49 18:25:30 14° 74° (ENE) 18:29:48
BEESAT 2 27 Mar 18:31:09 18:33:39 15° 34° (NE) 18:36:12 435.950
M-CUBED/EXP-1 PRIME 27 Mar 18:40:31 18:45:23 70° 107° (ESE) 18:50:12 437.505
Cubesat XI-IV 27 Mar 18:44:22 18:49:44 77° 256° (WSW) 18:55:10 437.490
CUTE-I 27 Mar 18:44:50 18:50:13 77° 256° (WSW) 18:55:37 437.470
PCSat 27 Mar 18:49:54 18:51:54 12° 334° (NNW) 18:53:44 145.827
BRITE-PL 27 Mar 19:08:55 19:09:57 11° 61° (ENE) 19:11:12 437.365/2234.400
BEESAT 3 27 Mar 19:10:12 19:13:55 31° 44° (NE) 19:17:36 437.485
HO-68 27 Mar 19:12:22 19:17:13 21° 53° (NE) 19:22:18 435.675
SO-50 27 Mar 19:27:56 19:31:50 28° 115° (ESE) 19:35:56 436.795
AIST 2 27 Mar 19:30:08 19:33:17 20° 38° (NE) 19:36:29 435.215
CUTE 1.7 + AOD 2 27 Mar 19:38:28 19:39:29 11° 60° (ENE) 19:40:41 437.475
STRAND 1 27 Mar 19:40:10 19:44:52 36° 96° (E) 19:49:35 437.568
MOZHAYETS 4 27 Mar 19:42:22 19:44:36 13° 300° (WNW) 19:46:38
CUBESAT XI-V 27 Mar 19:44:18 19:48:58 75° 102° (ESE) 19:53:35 437.345
RS-15 27 Mar 19:46:03 19:56:27 56° 115° (ESE) 20:07:08 29.354- 29.394
PRISM 27 Mar 19:51:15 19:55:28 71° 103° (ESE) 19:59:36 437.425
AUBIESAT-1 27 Mar 19:53:11 19:57:23 30° 299° (WNW) 20:01:31 437.475
DOVE 4 27 Mar 20:03:38 20:06:12 16° 64° (ENE) 20:08:52 437.250
GOMX 1 27 Mar 20:03:47 20:07:19 24° 67° (ENE) 20:10:46 467.674
BEESAT 2 27 Mar 20:08:16 20:12:27 88° 54° (NE) 20:16:33 435.950
SEEDS 27 Mar 20:08:47 20:11:40 19° 65° (ENE) 20:14:41 437.485
AAUSAT CUBESAT 2 27 Mar 20:09:55 20:12:01 14° 63° (ENE) 20:14:17 437.432
GONETS M04 27 Mar 20:12:17 20:20:52 70° 94° (E) 20:29:35
M-CUBED/EXP-1 PRIME 27 Mar 20:16:26 20:19:47 19° 303° (WNW) 20:23:01 437.505
Cubesat XI-IV 27 Mar 20:30:10 20:30:53 10° 276° (W) 20:31:16 437.490
CUTE-I 27 Mar 20:30:36 20:31:21 10° 276° (W) 20:31:42 437.470
COMPASS 1 27 Mar 20:33:42 20:37:13 27° 68° (ENE) 20:40:48 437.405
BRITE-PL 27 Mar 20:43:12 20:48:00 88° 77° (ENE) 20:52:27 437.365/2234.400
BEESAT 3 27 Mar 20:48:17 20:51:59 32° 243° (WSW) 20:55:35 437.485
CANX-2 27 Mar 20:56:19 21:00:32 73° 75° (ENE) 21:04:48 2200.000
HO-68 27 Mar 20:56:54 21:04:05 87° 73° (ENE) 21:11:20 435.675
SO-50 27 Mar 21:07:45 21:12:14 43° 314° (NW) 21:16:51 436.795
AIST 2 27 Mar 21:08:05 21:12:20 66° 238° (WSW) 21:16:29 435.215
CUTE 1.7 + AOD 2 27 Mar 21:10:34 21:14:48 86° 257° (WSW) 21:19:05 437.475
STRAND 1 27 Mar 21:19:32 21:24:01 31° 294° (WNW) 21:28:25 437.568
CUBESAT XI-V 27 Mar 21:23:20 21:25:53 14° 299° (WNW) 21:28:13 437.345
UKube-1 27 Mar 21:24:17 21:27:13 18° 64° (ENE) 21:30:16 .
DANDE 27 Mar 21:24:29 21:26:52 20° 97° (E) 21:29:03 436.750
PRISM 27 Mar 21:28:28 21:30:27 13° 299° (WNW) 21:32:15 437.425
DX 1 27 Mar 21:31:15 21:34:36 22° 65° (ENE) 21:38:03 434.975-435.025
CINEMA 3 27 Mar 21:33:50 21:38:01 70° 75° (ENE) 21:42:10 145.822/145.860
DELFI C3 27 Mar 21:35:31 21:39:17 39° 71° (ENE) 21:43:08 145.870
DOVE 4 27 Mar 21:39:24 21:43:41 53° 260° (W) 21:47:50 437.250
GOMX 1 27 Mar 21:41:10 21:45:21 36° 263° (W) 21:49:20 467.674
AAUSAT CUBESAT 2 27 Mar 21:43:04 21:47:12 63° 259° (W) 21:51:23 437.432
SEEDS 27 Mar 21:43:09 21:47:12 45° 262° (W) 21:51:17 437.485
HUMSAT D 27 Mar 21:44:30 21:47:14 18° 65° (ENE) 21:50:06 437.325/437.525
BEESAT 2 27 Mar 21:49:38 21:50:00 10° 251° (WSW) 21:50:07 435.950
Oscar 11 27 Mar 21:52:59 21:57:18 80° 76° (ENE) 22:01:39 145.826/435.025
RS-15 27 Mar 21:58:27 22:09:04 52° 320° (NW) 22:19:56 29.354- 29.394
UWE-3 27 Mar 21:58:38 22:02:42 58° 74° (ENE) 22:06:48 435.000/436.395/437.385
CUBEBUG 2 27 Mar 21:59:21 22:03:29 72° 75° (ENE) 22:07:38 437.445
FUNcube-1 27 Mar 21:59:50 22:03:48 47° 72° (ENE) 22:07:49 145.935
VELOX 1 27 Mar 22:03:06 22:06:25 21° 65° (ENE) 22:09:49 145.980
AISAT 27 Mar 22:06:39 22:10:09 24° 66° (ENE) 22:13:44 437.250
COMPASS 1 27 Mar 22:09:11 22:12:52 29° 265° (W) 22:16:33 437.405
CUBEBUG 1 27 Mar 22:10:57 22:12:40 12° 61° (ENE) 22:14:34 437.445
GONETS M04 27 Mar 22:11:14 22:18:38 29° 297° (WNW) 22:25:52
ZACube-1 27 Mar 22:11:46 22:15:52 65° 75° (ENE) 22:20:01 437.345
PCSat 27 Mar 22:22:13 22:24:17 12° 27° (NNE) 22:26:31 145.827
ESTCUBE 1 27 Mar 22:29:31 22:32:53 21° 65° (ENE) 22:36:23 437.505/2401.250
CUSAT 1 27 Mar 22:30:15 22:32:40 24° 285° (WNW) 22:34:53 437.405
CANX-2 27 Mar 22:35:48 22:37:06 11° 274° (W) 22:38:08 2200.000
ANTELSAT 27 Mar 22:42:43 22:45:19 15° 89° (E) 22:48:08 437.575/2403.000
HO-68 27 Mar 22:47:55 22:52:51 19° 273° (W) 22:57:28 435.675
SO-50 27 Mar 22:52:04 22:54:06 12° 337° (NNW) 22:56:03 436.795
50 SAT 27 Mar 22:52:21 22:56:12 62° 75° (ENE) 23:00:07 437.505
UKube-1 27 Mar 22:58:50 23:03:03 49° 260° (W) 23:07:18 .
QB50P1 27 Mar 23:05:39 23:07:17 12° 88° (E) 23:09:08 145.935-145.965
DX 1 27 Mar 23:06:33 23:10:40 39° 262° (W) 23:14:47 434.975-435.025
DUCHIFAT 1 27 Mar 23:08:30 23:10:20 13° 88° (E) 23:12:22 145.980
DANDE 27 Mar 23:08:48 23:10:09 12° 289° (WNW) 23:11:21 436.750
DELFI C3 27 Mar 23:11:42 23:14:41 19° 269° (W) 23:17:33 145.870
CINEMA 3 27 Mar 23:14:34 23:15:49 11° 273° (W) 23:16:49 145.822/145.860
HUMSAT D 27 Mar 23:18:48 23:22:44 44° 262° (W) 23:26:42 437.325/437.525
QB50P2 27 Mar 23:18:49 23:21:37 18° 91° (E) 23:24:34 145.880/145.840
Oscar 11 27 Mar 23:33:24 23:34:10 10° 274° (W) 23:34:39 145.826/435.025
UNISAT 6 27 Mar 23:37:35 23:42:03 53° 100° (E) 23:46:35 437.425
UWE-3 27 Mar 23:37:39 23:39:44 13° 272° (W) 23:41:37 435.000/436.395/437.385
FUNcube-1 27 Mar 23:37:50 23:40:29 16° 270° (W) 23:43:00 145.935
VELOX 1 27 Mar 23:38:30 23:42:45 43° 262° (W) 23:47:00 145.980
CUBEBUG 2 27 Mar 23:39:51 23:40:49 10° 274° (W) 23:41:31 437.445
AISAT 27 Mar 23:42:25 23:46:35 38° 262° (W) 23:50:45 437.250
CUBEBUG 1 27 Mar 23:44:03 23:48:29 81° 257° (WSW) 23:52:54 437.445
POPSAT HIP 1 27 Mar 23:47:19 23:51:10 33° 96° (E) 23:55:02 437.405
TIGRISAT 27 Mar 23:48:44 23:53:16 67° 101° (ESE) 23:57:52 435.000
ZACube-1 27 Mar 23:51:13 23:52:48 12° 273° (W) 23:54:10 437.345
BUGSAT 1 27 Mar 23:57:12 00:00:45 30° 96° (E) 00:04:20 437.445
TISAT 1 27 Mar 23:58:09 00:01:56 33° 69° (ENE) 00:05:44 437.305
NANOSAT C BR1 27 Mar 23:58:38 00:02:41 44° 99° (E) 00:06:45 145.865
POLYITAN 1 28 Mar 00:01:02 00:05:09 48° 99° (E) 00:09:17 437.675
SPROUT 28 Mar 00:01:07 00:05:08 41° 71° (ENE) 00:09:12 437.525
PCSat 28 Mar 00:04:02 00:09:14 44° 50° (NE) 00:14:25 145.827
ESTCUBE 1 28 Mar 00:05:08 00:09:31 45° 262° (W) 00:13:54 437.505/2401.250
YUBILEINY 28 Mar 00:06:56 00:13:59 27° 61° (ENE) 00:21:14 435.215
RS-15 28 Mar 00:15:34 00:24:46 28° 352° (N) 00:34:13 29.354- 29.394
ANTELSAT 28 Mar 00:18:04 00:22:34 61° 287° (WNW) 00:27:07 437.575/2403.000
ISS 28 Mar 00:19:27 00:22:36 49° 145° (SE) 00:25:46 145.825
50 SAT 28 Mar 00:30:21 00:31:38 11° 273° (W) 00:32:44 437.505
QB50P1 28 Mar 00:39:29 00:43:41 65° 286° (WNW) 00:47:52 145.935-145.965
ITUPSAT 1 28 Mar 00:39:55 00:43:10 19° 62° (ENE) 00:46:32 437.325
DUCHIFAT 1 28 Mar 00:42:30 00:46:41 62° 286° (WNW) 00:50:49 145.980
QB50P2 28 Mar 00:53:45 00:57:49 45° 289° (WNW) 01:01:51 145.880/145.840
UNISAT 6 28 Mar 01:15:17 01:18:30 19° 296° (WNW) 01:21:39 437.425
POPSAT HIP 1 28 Mar 01:23:30 01:26:57 24° 293° (WNW) 01:30:18 437.405
TIGRISAT 28 Mar 01:26:52 01:29:35 15° 297° (WNW) 01:32:10 435.000
SWISSCUBE 28 Mar 01:26:57 01:31:37 53° 71° (ENE) 01:36:19 437.505
BEESAT 28 Mar 01:30:17 01:34:56 52° 71° (ENE) 01:39:37 436.000
BUGSAT 1 28 Mar 01:32:51 01:36:10 24° 293° (WNW) 01:39:24 437.445
TISAT 1 28 Mar 01:34:19 01:37:48 24° 266° (W) 01:41:13 437.305
NANOSAT C BR1 28 Mar 01:35:16 01:38:16 19° 295° (WNW) 01:41:12 145.865
POLYITAN 1 28 Mar 01:37:51 01:40:46 18° 296° (WNW) 01:43:34 437.675
SPROUT 28 Mar 01:38:13 01:41:27 20° 268° (W) 01:44:34 437.525
PCSat 28 Mar 01:47:45 01:52:32 31° 249° (WSW) 01:57:13 145.827
ISS 28 Mar 01:56:03 01:59:06 36° 343° (NNW) 02:02:09 145.825
YUBILEINY 28 Mar 02:03:03 02:11:55 77° 264° (W) 02:20:38 435.215
KKS-1 28 Mar 02:09:00 02:12:37 25° 66° (ENE) 02:16:19 437.445
Oscar 19 28 Mar 02:10:26 02:15:09 36° 96° (E) 02:19:56 437.125/150
ITUPSAT 1 28 Mar 02:15:54 02:20:40 60° 259° (W) 02:25:27 437.325
SO-50 28 Mar 02:17:22 02:19:45 13° 26° (NNE) 02:22:16 436.795
RS-15 28 Mar 02:31:17 02:41:23 36° 26° (NNE) 02:51:59 29.354- 29.394
STARS 28 Mar 02:44:47 02:48:48 37° 69° (ENE) 02:52:52 437.465
SWISSCUBE 28 Mar 03:06:22 03:09:51 19° 269° (W) 03:13:12 437.505
BEESAT 28 Mar 03:09:40 03:13:08 19° 269° (W) 03:16:30 436.000
ITAMSAT 1 28 Mar 03:11:51 03:16:46 42° 98° (E) 03:21:41 435.822/435.867
MOZHAYETS 4 28 Mar 03:33:03 03:35:01 13° 60° (ENE) 03:37:12
ISS 28 Mar 03:33:19 03:36:05 25° 3° (N) 03:38:51 145.825
KKS-1 28 Mar 03:45:04 03:49:09 35° 263° (W) 03:53:13 437.445
Oscar 19 28 Mar 03:49:54 03:54:28 32° 294° (WNW) 03:59:00 437.125/150
Gurwin Techsat 1B 28 Mar 03:50:21 03:55:42 77° 102° (ESE) 04:01:01 435.225
O/OREOS (USA 219) 28 Mar 03:55:46 03:58:13 15° 100° (E) 04:00:52 437.305
SO-50 28 Mar 03:56:43 04:01:32 48° 48° (NE) 04:06:20 436.795
M-CUBED/EXP-1 PRIME 28 Mar 03:58:38 04:01:00 15° 55° (NE) 04:03:35 437.505
AIST 1 28 Mar 04:01:31 04:04:33 19° 87° (E) 04:07:43
YUBILEINY 28 Mar 04:02:18 04:07:22 16° 284° (WNW) 04:11:54 435.215
HORYU 2 28 Mar 04:09:57 04:13:53 29° 95° (E) 04:17:50 437.375
STARS 28 Mar 04:21:53 04:25:24 23° 267° (W) 04:28:51 437.465
